Starlink 4207

operational
NORAD ID: 52871 Int'l Des: 2022-062 Owner: SPXS Country: US Constellation: starlink
LEOCIRCULAR

Starlink 4207について

説明を読み込み中...

リアルタイム位置

3D地球を読み込み中...

次回通過

高度履歴

Altitude vs Time

uPlot chart will show altitude changes over time

軌道要素

1 52871U 22062AT 26073.92971473 -.00000408 00000-0 -75496-5 0 9995
2 52871 53.2202 350.6000 0001449 95.8477 264.2681 15.08834238206853
Epoch: Mar 14, 2026 • Age: 10 hours

現在のステータス

高度 547.2 km
速度 7.59 km/s
衛星直下点 -24.25°S, 116.49°W
打ち上げ日 Jun 17, 2022
運用期間 3.7 years
タイプ internet

技術仕様

分類 Payload
質量 297.00 kg
乾燥質量 275.00 kg
総質量 297.00 kg
長さ 0.20 m
直径 2.80 m
スパン 9.00 m
形状 Box + pan
製造者 SPXS
バスタイプ Starlink
フェーズステータス In Orbit
所有者/国 SPXS/US

大規模コンステレーション

Loading constellations...